Wind_Speed
9 9 8 7 7 8 7 8 8 9 9 10 9 9 10 10 10 10 10 11 10 10 10 11 11 11 11 11 11 10 11 11 11 11 11 11 11 10 10 11 11 11 11 12
10 9 8 7 7 7 8 9 9 9 9 10 10 10 9 9 10 10 10 11 10 10 10 10 10 11 12 12 12 11 11 12 12 12 12 12 12 12 12 12 13 13 13 13
11 9 9 8 8 8 9 9 10 10 9 10 10 10 9 9 10 10 10 10 10 10 11 11 11 11 12 12 13 12 12 12 12 13 13 13 13 12 12 13 14 14 14 14
11 10 10 10 9 10 10 10 11 11 10 10 10 11 9 10 11 10 10 10 10 10 11 12 12 12 12 12 13 13 13 13 14 14 14 14 14 14 14 14 14 15 15 15
12 12 12 12 11 11 11 11 12 12 11 11 11 12 9 10 10 10 10 10 10 11 11 12 13 13 13 13 13 14 15 15 15 15 15 15 15 15 16 15 15 15 15 15
13 13 13 13 12 12 12 12 12 12 13 13 12 13 11 10 11 11 10 11 11 12 12 13 13 14 14 14 14 15 15 15 15 15 15 15 15 15 16 16 16 16 16 16
14 14 14 14 13 13 13 13 13 14 14 13 12 13 11 10 11 12 12 12 12 13 13 13 14 15 15 15 15 16 16 16 16 16 16 16 16 16 17 17 17 17 17 17
15 15 15 15 15 14 14 15 15 15 15 13 12 14 12 11 12 12 12 13 14 14 15 15 16 16 16 16 17 17 17 18 18 18 18 17 17 18 18 18 18 18 18 18
16 15 15 15 15 15 15 15 15 17 17 16 16 15 14 14 13 13 13 14 15 15 16 16 16 16 16 17 18 18 18 18 18 18 19 19 18 18 19 19 19 20 19 19
16 17 16 16 16 16 16 16 16 17 18 18 18 17 15 15 15 15 14 14 15 15 16 17 17 17 17 18 18 18 19 19 19 19 20 20 20 19 19 20 21 21 21 20
16 17 16 17 17 17 16 17 18 18 18 19 20 18 16 16 15 15 14 14 15 16 17 17 17 17 18 19 19 19 19 20 20 21 21 21 21 21 22 22 22 22 23 23
16 17 17 16 16 16 17 17 18 19 20 20 21 19 16 17 16 16 16 16 17 17 17 17 17 18 19 19 20 20 20 21 21 22 22 22 22 23 23 23 23 23 23 24
16 16 16 16 16 16 17 17 19 19 20 20 20 18 17 18 17 17 17 18 18 18 18 18 19 19 19 20 20 21 21 22 22 23 23 23 23 24 24 24 24 25 25 25
16 16 17 17 17 17 18 18 19 20 20 20 19 19 18 18 18 18 19 19 19 19 19 19 19 20 20 20 20 21 22 22 23 23 24 24 24 25 25 26 26 26 26 26
17 17 17 17 18 19 19 19 19 20 21 21 20 20 19 19 19 19 19 20 20 20 20 20 20 20 21 21 21 20 21 22 23 24 25 25 25 25 25 25 26 27 27 28
17 17 17 17 18 19 18 18 19 20 21 21 20 20 19 19 20 20 21 21 21 22 21 22 21 21 22 22 22 22 22 22 23 24 25 25 25 25 25 26 27 28 28 29
18 18 18 18 19 19 18 19 21 21 21 20 20 21 21 21 22 22 22 22 23 23 22 22 21 22 23 23 23 24 23 24 24 24 25 26 26 26 26 27 28 29 29 29
20 20 20 20 20 21 19 19 20 21 22 21 21 22 22 22 22 22 23 23 23 24 24 23 22 22 23 23 23 23 23 24 24 24 24 26 26 26 27 28 28 29 29 30
21 21 22 22 22 22 20 20 21 21 22 22 22 22 22 22 22 22 23 23 24 25 24 24 24 23 23 24 24 24 24 24 24 24 24 25 26 26 27 28 28 29 29 29
23 22 23 23 23 23 20 21 22 22 22 22 22 22 22 22 23 22 23 23 23 24 25 24 24 24 24 24 24 23 24 25 25 25 25 26 26 26 27 27 28 28 29 29
24 24 24 23 23 23 21 22 22 23 22 22 22 23 23 23 24 23 24 24 24 24 25 25 26 26 26 25 25 24 24 25 26 26 26 25 26 26 27 27 28 28 28 28
23 24 25 25 25 23 22 23 23 23 24 24 23 23 23 24 24 24 24 24 24 24 25 26 26 26 25 25 25 24 24 25 25 25 24 24 25 25 26 26 26 27 27 27
24 24 25 26 26 25 25 24 25 25 25 24 24 24 23 24 24 24 24 25 25 25 25 25 25 25 25 25 25 25 25 25 25 24 23 23 23 24 24 25 25 25 25 24
24 25 26 27 27 27 27 26 26 26 26 25 25 24 24 25 26 26 25 24 25 25 25 25 25 25 25 24 24 24 24 24 24 23 23 24 24 23 23 24 23 23 23 23
25 26 27 28 28 28 28 27 27 26 26 26 25 25 25 26 26 26 26 25 25 25 25 24 24 24 23 23 23 23 23 23 23 22 23 23 23 24 24 23 23 23 23 22
25 26 27 28 27 28 28 28 27 27 26 26 25 25 26 25 26 26 25 25 24 24 24 23 23 22 22 21 21 21 22 22 22 22 23 23 23 24 24 23 23 23 23 23
Wind_Direction
262 258 260 266 267 270 270 269 273 274 274 273 272 271 268 268 269 270 270 272 270 269 267 267 265 268 269 270 272 272 269 268 269 268 269 270 274 278 283 284 284 283 280 275
261 263 265 268 270 273 274 275 275 275 276 277 277 276 274 271 268 269 271 271 270 267 266 265 265 267 267 270 274 273 271 272 272 272 274 272 275 278 281 282 283 283 281 277
261 263 263 266 268 271 270 274 276 275 276 275 276 277 279 275 273 273 274 272 269 267 266 268 266 269 270 273 275 274 273 273 274 274 277 276 276 277 279 281 282 283 281 280
258 258 259 262 267 270 269 269 271 273 273 272 275 279 280 276 275 274 276 273 271 269 270 271 270 270 273 275 274 272 272 271 273 273 275 273 273 275 275 277 280 281 281 281
259 259 259 261 265 270 273 270 270 273 273 273 275 279 280 280 276 271 273 276 277 273 270 272 273 273 273 273 271 271 273 271 271 272 275 275 273 272 272 273 277 279 281 281
256 255 255 259 265 269 271 270 271 272 273 273 275 279 276 277 278 278 276 277 279 277 273 272 271 271 273 273 272 272 271 270 270 269 273 273 271 270 271 273 274 276 279 279
255 255 256 259 262 262 264 267 268 271 272 274 274 274 276 276 274 273 272 273 276 279 276 272 271 271 273 274 273 274 272 271 268 267 270 270 270 269 270 272 274 277 278 278
256 256 258 259 261 264 265 266 267 270 273 275 271 273 278 276 273 272 272 273 276 277 275 274 273 272 273 273 272 273 273 273 271 268 267 269 270 271 271 272 275 277 277 276
260 259 259 259 260 262 264 265 269 270 273 275 272 274 276 276 276 278 277 277 276 277 274 274 274 272 272 273 272 271 273 274 273 270 269 270 270 272 271 271 274 276 276 277
261 260 259 260 259 259 261 263 263 266 270 272 273 275 279 281 281 278 276 276 276 277 274 273 274 273 271 272 271 271 272 272 273 272 271 270 269 268 269 273 276 276 277 278
263 261 259 259 259 259 259 259 262 264 268 272 274 275 276 277 277 276 278 278 278 278 274 273 273 271 271 272 272 272 273 273 273 273 274 273 272 270 270 272 274 276 277 277
262 262 260 260 260 259 260 260 263 265 268 271 273 274 272 272 272 274 276 278 280 281 279 277 274 271 271 271 271 271 271 271 272 273 273 273 273 274 274 274 275 277 278 278
264 262 261 258 259 260 260 261 262 266 268 269 270 274 272 270 271 274 276 278 280 281 277 276 273 272 272 270 268 268 269 270 271 272 272 272 272 274 275 276 276 277 278 280
266 265 263 261 262 263 263 263 263 264 265 267 268 272 273 274 273 274 276 278 279 278 274 273 272 272 273 271 269 268 269 270 271 272 273 272 272 273 274 276 277 278 278 279
266 267 266 266 264 264 264 265 265 263 265 266 267 269 271 274 275 275 277 279 278 277 275 274 273 271 271 272 271 270 269 270 271 272 274 274 274 275 275 276 278 280 280 280
265 266 267 266 266 265 264 263 265 268 267 268 269 269 270 274 276 275 276 278 278 278 277 277 274 272 272 272 272 270 271 271 272 273 274 274 274 275 277 278 279 280 282 282
262 263 265 265 262 263 264 264 265 266 268 269 271 273 273 272 275 276 276 277 279 280 280 277 274 274 274 273 273 272 273 273 274 275 273 273 274 274 276 278 279 281 282 283
265 264 264 265 264 263 266 266 267 267 267 268 270 272 273 274 275 277 278 278 278 280 280 279 277 274 275 275 274 273 274 275 275 275 274 273 273 274 276 278 280 282 282 283
265 265 264 265 265 267 266 267 268 270 270 270 271 272 273 274 275 276 276 277 278 279 279 279 278 278 276 275 275 273 275 276 276 277 277 276 275 275 277 279 281 281 282 283
265 265 265 267 268 269 269 267 267 270 272 272 272 273 273 273 275 276 275 275 277 278 278 278 279 278 278 277 277 276 276 277 278 277 277 277 278 278 279 280 281 282 282 283
266 265 265 267 268 269 271 271 270 269 272 272 273 274 274 274 276 276 277 275 276 277 278 278 279 278 276 276 276 276 277 279 279 277 277 277 278 279 280 281 282 284 285 285
266 266 266 268 270 270 271 271 272 271 271 272 271 272 273 274 275 275 276 276 277 277 277 278 279 279 277 276 276 277 278 279 279 279 279 279 279 280 281 283 284 286 286 286
263 265 268 270 271 273 272 272 271 272 273 272 271 271 272 272 274 276 276 277 278 279 279 280 279 278 278 276 275 276 277 277 277 277 278 280 281 281 283 284 285 286 286 286
264 265 267 269 271 272 272 272 272 273 274 275 274 272 273 273 275 275 277 279 279 278 280 281 280 279 278 276 276 277 277 277 274 275 277 280 282 283 285 286 286 285 286 286
267 266 267 267 269 270 270 271 271 273 275 276 275 275 274 274 274 275 276 276 278 277 278 278 278 278 278 277 277 277 277 276 275 276 278 280 282 283 285 287 285 285 285 287
271 269 267 267 268 269 269 267 269 271 273 275 276 276 276 276 274 275 275 276 278 278 278 278 277 276 277 277 277 277 276 276 276 277 280 281 282 284 285 285 285 286 286 286
Height
5833 5834 5833 5833 5833 5833 5833 5832 5832 5832 5832 5831 5831 5831 5831 5831 5831 5831 5831 5832 5832 5832 5832 5832 5832 5832 5832 5832 5832 5832 5832 5832 5832 5832 5832 5832 5831 5831 5831 5830 5830 5829 5828 5828
5831 5831 5831 5830 5830 5830 5830 5829 5829 5829 5828 5828 5828 5828 5828 5828 5828 5828 5828 5828 5828 5828 5829 5829 5828 5829 5829 5829 5828 5828 5829 5828 5829 5829 5829 5829 5828 5828 5827 5827 5827 5826 5825 5824
5828 5829 5828 5827 5827 5827 5827 5827 5826 5826 5825 5825 5825 5825 5825 5825 5824 5824 5824 5824 5824 5825 5825 5825 5825 5825 5825 5825 5825 5825 5825 5825 5825 5825 5825 5825 5825 5825 5824 5823 5823 5822 5821 5821
5824 5825 5825 5824 5824 5825 5824 5824 5824 5823 5822 5822 5822 5821 5822 5821 5821 5821 5821 5821 5821 5821 5821 5821 5821 5821 5821 5821 5821 5821 5821 5821 5822 5822 5821 5821 5821 5821 5820 5820 5819 5819 5818 5817
5820 5821 5821 5821 5822 5821 5821 5820 5820 5820 5819 5819 5818 5817 5819 5817 5817 5817 5817 5817 5817 5817 5817 5817 5817 5817 5817 5817 5817 5817 5817 5818 5818 5818 5817 5817 5817 5816 5816 5816 5815 5815 5814 5813
5816 5817 5817 5818 5818 5817 5817 5817 5817 5816 5815 5815 5815 5814 5815 5814 5813 5813 5813 5813 5813 5813 5813 5813 5813 5813 5813 5813 5813 5813 5813 5813 5813 5813 5813 5813 5812 5812 5812 5811 5811 5810 5809 5808
5812 5813 5813 5813 5813 5813 5813 5814 5813 5812 5811 5811 5811 5809 5811 5810 5810 5809 5809 5809 5809 5809 5808 5808 5808 5808 5808 5808 5808 5808 5809 5809 5809 5809 5808 5808 5808 5808 5807 5807 5806 5805 5804 5804
5807 5808 5809 5809 5809 5809 5809 5809 5810 5809 5807 5807 5806 5805 5807 5806 5805 5805 5805 5805 5804 5804 5804 5804 5804 5804 5804 5803 5803 5803 5803 5803 5803 5803 5803 5803 5803 5803 5802 5802 5801 5800 5799 5799
5802 5804 5804 5804 5805 5805 5804 5804 5805 5804 5803 5802 5802 5802 5803 5802 5801 5801 5800 5800 5800 5799 5799 5799 5799 5799 5799 5798 5798 5798 5798 5798 5798 5798 5798 5798 5798 5797 5797 5796 5796 5795 5794 5793
5798 5799 5799 5800 5800 5800 5800 5800 5800 5799 5798 5797 5797 5797 5798 5797 5797 5796 5796 5795 5795 5795 5794 5794 5794 5794 5794 5794 5793 5793 5793 5793 5793 5792 5792 5792 5792 5791 5791 5790 5790 5789 5788 5787
5793 5794 5795 5794 5794 5795 5796 5796 5795 5794 5794 5793 5792 5795 5794 5793 5792 5791 5791 5791 5790 5790 5789 5789 5788 5788 5788 5788 5788 5787 5787 5787 5787 5786 5786 5786 5785 5785 5785 5784 5783 5782 5781 5781
5788 5789 5789 5790 5790 5790 5790 5790 5790 5790 5789 5788 5787 5791 5789 5787 5787 5786 5786 5786 5785 5785 5784 5783 5783 5783 5782 5782 5782 5782 5781 5781 5781 5780 5780 5779 5779 5778 5778 5777 5776 5775 5774 5773
5783 5784 5784 5784 5786 5785 5785 5785 5785 5784 5784 5783 5782 5785 5783 5782 5782 5781 5781 5780 5780 5779 5779 5778 5777 5777 5776 5776 5775 5775 5775 5775 5774 5774 5774 5773 5772 5771 5771 5770 5769 5768 5767 5766
5778 5779 5780 5780 5779 5779 5779 5780 5779 5779 5778 5778 5778 5778 5778 5777 5777 5776 5775 5775 5774 5773 5773 5772 5771 5771 5770 5770 5769 5768 5768 5768 5767 5767 5766 5766 5765 5764 5763 5762 5761 5760 5759 5757
5774 5774 5774 5774 5774 5774 5774 5774 5774 5773 5773 5773 5773 5772 5772 5772 5771 5771 5770 5769 5768 5767 5766 5766 5765 5764 5764 5763 5763 5762 5761 5761 5760 5759 5758 5758 5757 5756 5755 5754 5753 5752 5750 5749
5769 5769 5769 5769 5768 5768 5768 5769 5768 5768 5768 5767 5767 5767 5766 5766 5765 5764 5764 5763 5762 5761 5760 5759 5759 5758 5757 5757 5756 5755 5754 5753 5753 5752 5751 5750 5749 5749 5748 5747 5745 5744 5742 5740
5763 5763 5763 5763 5763 5762 5763 5763 5763 5762 5762 5761 5761 5762 5760 5760 5759 5758 5757 5756 5755 5754 5753 5752 5752 5751 5750 5750 5749 5748 5747 5746 5745 5744 5743 5742 5741 5741 5740 5739 5737 5735 5733 5731
5758 5757 5757 5757 5757 5756 5760 5758 5757 5756 5756 5756 5755 5755 5754 5754 5752 5751 5751 5750 5748 5747 5746 5745 5745 5744 5743 5742 5742 5741 5739 5738 5737 5736 5735 5734 5733 5733 5732 5730 5728 5726 5724 5722
5751 5751 5750 5750 5750 5750 5752 5752 5751 5750 5749 5749 5749 5748 5747 5746 5745 5745 5744 5743 5742 5741 5740 5739 5738 5737 5736 5735 5734 5733 5732 5730 5729 5729 5727 5726 5725 5724 5723 5722 5720 5718 5715 5713
5744 5744 5744 5743 5743 5743 5746 5745 5744 5744 5743 5743 5742 5741 5740 5740 5739 5739 5737 5736 5735 5733 5732 5731 5730 5730 5728 5727 5726 5725 5724 5723 5722 5721 5720 5719 5717 5716 5715 5713 5711 5709 5706 5704
5737 5737 5737 5736 5735 5736 5738 5737 5737 5738 5738 5736 5735 5734 5734 5733 5732 5732 5730 5728 5727 5726 5725 5724 5723 5722 5721 5720 5718 5717 5716 5715 5714 5713 5712 5711 5709 5708 5706 5704 5702 5700 5698 5695
5730 5730 5730 5729 5729 5732 5731 5730 5730 5730 5729 5728 5728 5727 5727 5726 5725 5723 5722 5721 5720 5719 5718 5716 5715 5713 5712 5711 5711 5710 5709 5708 5706 5705 5704 5703 5701 5700 5698 5696 5694 5691 5689 5687
5724 5724 5723 5723 5724 5724 5723 5723 5722 5722 5721 5721 5720 5720 5719 5718 5717 5716 5715 5714 5713 5711 5710 5709 5707 5706 5705 5703 5703 5702 5701 5700 5698 5697 5696 5695 5694 5692 5690 5688 5686 5684 5681 5679
5717 5717 5716 5715 5715 5715 5715 5715 5714 5714 5713 5713 5712 5712 5711 5711 5710 5709 5707 5706 5705 5704 5702 5701 5699 5698 5697 5696 5695 5694 5693 5691 5690 5690 5689 5688 5686 5685 5683 5680 5678 5676 5674 5672
5709 5709 5708 5707 5707 5707 5707 5706 5706 5705 5705 5705 5704 5704 5703 5703 5702 5700 5700 5699 5697 5696 5694 5693 5692 5691 5689 5688 5687 5686 5685 5684 5683 5683 5682 5680 5679 5677 5675 5673 5671 5669 5667 5665
5702 5701 5700 5700 5700 5699 5699 5698 5698 5697 5697 5697 5696 5696 5695 5694 5693 5692 5691 5691 5689 5688 5687 5685 5684 5683 5682 5681 5680 5679 5678 5677 5676 5676 5675 5673 5672 5670 5668 5666 5664 5662 5661 5659